Time,TemperatureF,DewpointF,PressureIn,WindDirection,WindDirectionDegrees,WindSpeedMPH,WindSpeedGustMPH,Humidity,HourlyPrecipIn,Conditions,Clouds,dailyrainin,SoftwareType,DateUTC
2013-05-27 00:09:00,42.6,17.5,29.81,ESE,112,0.0,-999.0,36,-99.99,,,0.00,Acu-Link.com,2013-05-27 06:09:00,
2013-05-27 00:24:00,42.1,17.7,29.81,ESE,112,0.0,-999.0,37,-99.99,,,0.00,Acu-Link.com,2013-05-27 06:24:00,
2013-05-27 00:39:00,41.5,18.4,29.81,ESE,112,0.0,-999.0,39,-99.99,,,0.00,Acu-Link.com,2013-05-27 06:39:00,
2013-05-27 00:54:00,41.7,18.0,29.80,ESE,112,0.0,-999.0,38,-99.99,,,0.00,Acu-Link.com,2013-05-27 06:54:00,
2013-05-27 01:09:00,42.3,17.3,29.80,ESE,112,0.0,-999.0,36,-99.99,,,0.00,Acu-Link.com,2013-05-27 07:09:00,
2013-05-27 01:24:00,41.5,17.8,29.80,ESE,112,1.1,-999.0,38,-99.99,,,0.00,Acu-Link.com,2013-05-27 07:24:00,
2013-05-27 01:40:00,41.9,17.6,29.80,ESE,112,0.0,-999.0,37,-99.99,,,0.00,Acu-Link.com,2013-05-27 07:40:00,
2013-05-27 01:55:00,41.5,17.2,29.80,ESE,112,0.0,-999.0,37,-99.99,,,0.00,Acu-Link.com,2013-05-27 07:55:00,
2013-05-27 02:10:00,41.4,17.7,29.79,ESE,112,1.1,-999.0,38,-99.99,,,0.00,Acu-Link.com,2013-05-27 08:10:00,
2013-05-27 02:25:00,41.2,16.9,29.79,ESE,112,0.0,-999.0,37,-99.99,,,0.00,Acu-Link.com,2013-05-27 08:25:00,
2013-05-27 02:40:00,40.6,16.4,29.79,ESE,112,0.0,-999.0,37,-99.99,,,0.00,Acu-Link.com,2013-05-27 08:40:00,
2013-05-27 02:56:00,40.5,17.5,29.79,ESE,112,1.7,-999.0,39,-99.99,,,0.00,Acu-Link.com,2013-05-27 08:56:00,
2013-05-27 03:11:00,39.7,16.8,29.78,ESE,112,0.0,-999.0,39,-99.99,,,0.00,Acu-Link.com,2013-05-27 09:11:00,
2013-05-27 03:26:00,41.4,16.5,29.78,ESE,112,1.1,-999.0,36,-99.99,,,0.00,Acu-Link.com,2013-05-27 09:26:00,
2013-05-27 03:41:00,39.9,15.8,29.78,ESE,112,0.0,-999.0,37,-99.99,,,0.00,Acu-Link.com,2013-05-27 09:41:00,
2013-05-27 03:56:00,38.3,15.5,29.78,ESE,112,0.0,-999.0,39,-99.99,,,0.00,Acu-Link.com,2013-05-27 09:56:00,
2013-05-27 04:12:00,38.7,15.3,29.77,ESE,112,0.0,-999.0,38,-99.99,,,0.00,Acu-Link.com,2013-05-27 10:12:00,
2013-05-27 04:27:00,38.7,14.7,29.78,ESE,112,2.2,-999.0,37,-99.99,,,0.00,Acu-Link.com,2013-05-27 10:27:00,
2013-05-27 04:42:00,39.2,14.5,29.77,ESE,112,1.1,-999.0,36,-99.99,,,0.00,Acu-Link.com,2013-05-27 10:42:00,
2013-05-27 04:57:00,39.0,14.3,29.77,ESE,112,1.7,-999.0,36,-99.99,,,0.00,Acu-Link.com,2013-05-27 10:57:00,
2013-05-27 05:12:00,38.5,15.1,29.77,ESE,112,1.1,-999.0,38,-99.99,,,0.00,Acu-Link.com,2013-05-27 11:12:00,
2013-05-27 05:27:00,38.1,14.2,29.77,ESE,112,0.0,-999.0,37,-99.99,,,0.00,Acu-Link.com,2013-05-27 11:27:00,
2013-05-27 05:42:00,37.6,13.7,29.77,ESE,112,0.0,-999.0,37,-99.99,,,0.00,Acu-Link.com,2013-05-27 11:42:00,
2013-05-27 05:57:00,36.9,13.7,29.78,ESE,112,0.0,-999.0,38,-99.99,,,0.00,Acu-Link.com,2013-05-27 11:57:00,
2013-05-27 06:13:00,36.9,13.7,29.78,ESE,112,0.0,-999.0,38,-99.99,,,0.00,Acu-Link.com,2013-05-27 12:13:00,
2013-05-27 06:28:00,38.1,17.6,29.79,ESE,112,2.2,-999.0,43,-99.99,,,0.00,Acu-Link.com,2013-05-27 12:28:00,
2013-05-27 06:43:00,37.9,14.0,29.79,ESE,112,0.0,-999.0,37,-99.99,,,0.00,Acu-Link.com,2013-05-27 12:43:00,
2013-05-27 06:58:00,39.4,14.7,29.79,ESE,112,1.7,-999.0,36,-99.99,,,0.00,Acu-Link.com,2013-05-27 12:58:00,
2013-05-27 07:13:00,40.8,15.9,29.79,ESE,112,2.2,-999.0,36,-99.99,,,0.00,Acu-Link.com,2013-05-27 13:13:00,
2013-05-27 07:28:00,41.9,17.6,29.79,ESE,112,1.1,-999.0,37,-99.99,,,0.00,Acu-Link.com,2013-05-27 13:28:00,
2013-05-27 07:43:00,43.2,18.1,29.78,ESE,112,0.0,-999.0,36,-99.99,,,0.00,Acu-Link.com,2013-05-27 13:43:00,
2013-05-27 07:58:00,44.8,20.1,29.79,ESE,112,2.7,-999.0,37,-99.99,,,0.00,Acu-Link.com,2013-05-27 13:58:00,
2013-05-27 08:14:00,46.0,19.9,29.79,ESE,112,1.7,-999.0,35,-99.99,,,0.00,Acu-Link.com,2013-05-27 14:14:00,
2013-05-27 08:29:00,49.1,19.8,29.79,ESE,112,2.7,-999.0,31,-99.99,,,0.00,Acu-Link.com,2013-05-27 14:29:00,
2013-05-27 08:44:00,51.3,20.1,29.78,ESE,112,2.7,-999.0,29,-99.99,,,0.00,Acu-Link.com,2013-05-27 14:44:00,
2013-05-27 08:59:00,51.6,19.6,29.78,ESE,112,3.2,-999.0,28,-99.99,,,0.00,Acu-Link.com,2013-05-27 14:59:00,
2013-05-27 09:14:00,51.6,19.6,29.78,ESE,112,1.1,-999.0,28,-99.99,,,0.00,Acu-Link.com,2013-05-27 15:14:00,
2013-05-27 09:29:00,55.8,22.3,29.78,ESE,112,2.2,-999.0,27,-99.99,,,0.00,Acu-Link.com,2013-05-27 15:29:00,
2013-05-27 09:44:00,55.9,23.3,29.78,ESE,112,1.7,-999.0,28,-99.99,,,0.00,Acu-Link.com,2013-05-27 15:44:00,
2013-05-27 09:59:00,55.6,23.0,29.78,ESE,112,2.7,-999.0,28,-99.99,,,0.00,Acu-Link.com,2013-05-27 15:59:00,
2013-05-27 10:14:00,54.7,23.1,29.77,NNW,337,2.7,-999.0,29,-99.99,,,0.00,Acu-Link.com,2013-05-27 16:14:00,
2013-05-27 10:30:00,53.4,23.5,29.76,ESE,112,2.2,-999.0,31,-99.99,,,0.00,Acu-Link.com,2013-05-27 16:30:00,
2013-05-27 10:45:00,55.8,24.8,29.77,SE,135,3.7,-999.0,30,-99.99,,,0.00,Acu-Link.com,2013-05-27 16:45:00,
2013-05-27 11:00:00,59.2,25.2,29.77,ESE,112,1.7,-999.0,27,-99.99,,,0.00,Acu-Link.com,2013-05-27 17:00:00,
2013-05-27 11:15:00,57.7,24.8,29.77,ESE,112,4.2,-999.0,28,-99.99,,,0.00,Acu-Link.com,2013-05-27 17:15:00,
2013-05-27 11:30:00,56.3,24.5,29.77,North,0,3.7,-999.0,29,-99.99,,,0.00,Acu-Link.com,2013-05-27 17:30:00,
2013-05-27 11:45:00,59.4,27.1,29.76,South,180,2.2,-999.0,29,-99.99,,,0.00,Acu-Link.com,2013-05-27 17:45:00,
2013-05-27 12:00:00,60.4,26.3,29.75,South,180,7.3,-999.0,27,-99.99,,,0.00,Acu-Link.com,2013-05-27 18:00:00,
2013-05-27 12:15:00,57.2,23.5,29.76,South,180,2.7,-999.0,27,-99.99,,,0.00,Acu-Link.com,2013-05-27 18:15:00,
2013-05-27 12:30:00,60.1,26.9,29.75,ENE,67,1.7,-999.0,28,-99.99,,,0.00,Acu-Link.com,2013-05-27 18:30:00,
2013-05-27 12:46:00,56.7,27.2,29.75,WNW,292,4.7,-999.0,32,-99.99,,,0.00,Acu-Link.com,2013-05-27 18:46:00,
2013-05-27 13:01:00,58.3,27.0,29.75,ESE,112,2.7,-999.0,30,-99.99,,,0.00,Acu-Link.com,2013-05-27 19:01:00,
2013-05-27 13:16:00,56.5,27.0,29.75,ESE,112,2.7,-999.0,32,-99.99,,,0.00,Acu-Link.com,2013-05-27 19:16:00,
2013-05-27 13:31:00,55.2,26.6,29.75,ESE,112,4.2,-999.0,33,-99.99,,,0.00,Acu-Link.com,2013-05-27 19:31:00,
2013-05-27 13:46:00,57.2,24.4,29.75,West,270,2.2,-999.0,28,-99.99,,,0.00,Acu-Link.com,2013-05-27 19:46:00,
2013-05-27 14:01:00,57.4,27.0,29.75,ENE,67,3.7,-999.0,31,-99.99,,,0.00,Acu-Link.com,2013-05-27 20:01:00,
2013-05-27 14:16:00,59.9,29.2,29.75,South,180,2.7,-999.0,31,-99.99,,,0.00,Acu-Link.com,2013-05-27 20:16:00,
2013-05-27 14:31:00,59.5,28.0,29.75,East,90,5.3,-999.0,30,-99.99,,,0.00,Acu-Link.com,2013-05-27 20:31:00,
2013-05-27 14:46:00,57.2,25.2,29.74,West,270,2.2,-999.0,29,-99.99,,,0.00,Acu-Link.com,2013-05-27 20:46:00,
2013-05-27 15:02:00,60.1,29.4,29.74,West,270,2.7,-999.0,31,-99.99,,,0.00,Acu-Link.com,2013-05-27 21:02:00,
2013-05-27 15:17:00,54.3,26.5,29.74,SSE,157,2.2,-999.0,34,-99.99,,,0.00,Acu-Link.com,2013-05-27 21:17:00,
2013-05-27 15:32:00,54.1,27.1,29.73,West,270,4.2,-999.0,35,-99.99,,,0.00,Acu-Link.com,2013-05-27 21:32:00,
2013-05-27 15:47:00,52.0,25.9,29.74,South,180,3.7,-999.0,36,-99.99,,,0.00,Acu-Link.com,2013-05-27 21:47:00,
2013-05-27 16:02:00,56.3,29.0,29.72,ESE,112,3.2,-999.0,35,-99.99,,,0.00,Acu-Link.com,2013-05-27 22:02:00,
2013-05-27 16:17:00,57.7,25.7,29.72,ESE,112,3.7,-999.0,29,-99.99,,,0.00,Acu-Link.com,2013-05-27 22:17:00,
2013-05-27 16:33:00,55.9,26.5,29.72,SE,135,5.8,-999.0,32,-99.99,,,0.00,Acu-Link.com,2013-05-27 22:33:00,
2013-05-27 16:48:00,52.9,28.0,29.72,ENE,67,5.8,-999.0,38,-99.99,,,0.00,Acu-Link.com,2013-05-27 22:48:00,
2013-05-27 17:03:00,53.1,28.2,29.72,WNW,292,3.2,-999.0,38,-99.99,,,0.00,Acu-Link.com,2013-05-27 23:03:00,
2013-05-27 17:18:00,52.0,29.6,29.71,WNW,292,2.7,-999.0,42,-99.99,,,0.00,Acu-Link.com,2013-05-27 23:18:00,
2013-05-27 17:33:00,50.9,28.6,29.72,ENE,67,4.2,-999.0,42,-99.99,,,0.00,Acu-Link.com,2013-05-27 23:33:00,
2013-05-27 17:48:00,53.8,28.8,29.71,ENE,67,1.7,-999.0,38,-99.99,,,0.00,Acu-Link.com,2013-05-27 23:48:00,
2013-05-27 18:04:00,55.0,27.9,29.70,ENE,67,2.7,-999.0,35,-99.99,,,0.00,Acu-Link.com,2013-05-28 00:04:00,
2013-05-27 18:19:00,53.8,26.1,29.69,SSW,202,3.7,-999.0,34,-99.99,,,0.00,Acu-Link.com,2013-05-28 00:19:00,
2013-05-27 18:34:00,51.8,24.3,29.69,ESE,112,2.7,-999.0,34,-99.99,,,0.00,Acu-Link.com,2013-05-28 00:34:00,
2013-05-27 18:49:00,51.6,24.2,29.69,ESE,112,5.8,-999.0,34,-99.99,,,0.00,Acu-Link.com,2013-05-28 00:49:00,
2013-05-27 19:04:00,50.4,21.7,29.69,WNW,292,2.7,-999.0,32,-99.99,,,0.00,Acu-Link.com,2013-05-28 01:04:00,
2013-05-27 19:19:00,49.5,21.6,29.70,WSW,247,8.9,-999.0,33,-99.99,,,0.00,Acu-Link.com,2013-05-28 01:19:00,
2013-05-27 19:34:00,48.2,23.2,29.69,SW,225,4.7,-999.0,37,-99.99,,,0.00,Acu-Link.com,2013-05-28 01:34:00,
2013-05-27 19:49:00,47.7,22.7,29.69,West,270,4.7,-999.0,37,-99.99,,,0.00,Acu-Link.com,2013-05-28 01:49:00,
2013-05-27 20:04:00,46.6,23.6,29.69,SE,135,3.7,-999.0,40,-99.99,,,0.00,Acu-Link.com,2013-05-28 02:04:00,
2013-05-27 20:20:00,45.9,23.5,29.70,NW,315,2.7,-999.0,41,-99.99,,,0.00,Acu-Link.com,2013-05-28 02:20:00,
2013-05-27 20:35:00,44.1,24.1,29.70,WNW,292,1.7,-999.0,45,-99.99,,,0.00,Acu-Link.com,2013-05-28 02:35:00,
2013-05-27 20:50:00,43.2,24.9,29.71,ESE,112,1.7,-999.0,48,-99.99,,,0.00,Acu-Link.com,2013-05-28 02:50:00,
2013-05-27 21:05:00,42.3,25.5,29.71,ESE,112,2.2,-999.0,51,-99.99,,,0.00,Acu-Link.com,2013-05-28 03:05:00,
2013-05-27 21:20:00,41.5,25.2,29.71,ESE,112,1.7,-999.0,52,-99.99,,,0.00,Acu-Link.com,2013-05-28 03:20:00,
2013-05-27 21:35:00,41.2,25.4,29.71,ESE,112,2.2,-999.0,53,-99.99,,,0.00,Acu-Link.com,2013-05-28 03:35:00,
2013-05-27 21:50:00,41.0,24.7,29.70,ESE,112,0.0,-999.0,52,-99.99,,,0.00,Acu-Link.com,2013-05-28 03:50:00,
2013-05-27 22:05:00,40.3,24.1,29.72,ESE,112,2.2,-999.0,52,-99.99,,,0.00,Acu-Link.com,2013-05-28 04:05:00,
2013-05-27 22:20:00,40.8,24.1,29.72,ESE,112,0.0,-999.0,51,-99.99,,,0.00,Acu-Link.com,2013-05-28 04:20:00,
2013-05-27 22:35:00,39.4,24.2,29.73,ESE,112,0.0,-999.0,54,-99.99,,,0.00,Acu-Link.com,2013-05-28 04:35:00,
2013-05-27 22:51:00,38.5,23.3,29.74,ESE,112,1.7,-999.0,54,-99.99,,,0.00,Acu-Link.com,2013-05-28 04:51:00,
2013-05-27 23:06:00,37.2,24.2,29.74,ESE,112,0.0,-999.0,59,-99.99,,,0.00,Acu-Link.com,2013-05-28 05:06:00,
2013-05-27 23:21:00,37.6,22.5,29.75,ESE,112,1.7,-999.0,54,-99.99,,,0.00,Acu-Link.com,2013-05-28 05:21:00,
2013-05-27 23:36:00,36.3,23.0,29.75,ESE,112,1.7,-999.0,58,-99.99,,,0.00,Acu-Link.com,2013-05-28 05:36:00,
2013-05-27 23:51:00,36.0,22.3,29.74,ESE,112,1.7,-999.0,57,-99.99,,,0.00,Acu-Link.com,2013-05-28 05:51:00,